Location: Houston
(29.7630°N, 95.3630°W)
Time: 20:50:27
(UTC-05:00)

Amateur Radio Satellites - All Passes

Search period start: 01 September 2014 20:20
Search period end: 02 September 2014 20:20
Location: Houston, 29.7630°N, 95.3630°W

Satellite Date Start Highest point End Downlink Frequencies (MHz)
Time Altitude Azimuth
RS-15 01 Sep 20:33:44 20:36:22 11° 261° (W) 20:39:01 29.354 - 29.394 USB, Beacon 29.352 USB
UKube-1 01 Sep 21:08:50 21:11:19 15° 69° (ENE) 21:13:48 145.840 MHz, 145.915 MHz
STRAND 1 01 Sep 21:11:02 21:14:49 21° 291° (WNW) 21:18:37 ?
HO-68 01 Sep 21:32:46 21:39:53 75° 73° (ENE) 21:47:00 435.675 MHz FM
Saudisat 1A 01 Sep 21:40:08 21:43:57 29° 112° (ESE) 21:47:47 436.775 MHz
MaSat-1 01 Sep 22:13:14 22:13:53 10° 54° (NE) 22:14:31 437.345 MHz
KITSAT 1 01 Sep 22:22:36 22:29:23 31° 106° (ESE) 22:36:09 435.175 FM
AO-40 01 Sep 22:30:42 04:11:10 49° 145° (SE) 05:43:34 Beacon 2401.320
UKube-1 01 Sep 22:43:14 22:47:11 34° 261° (W) 22:51:08 145.840 MHz, 145.915 MHz
Oscar 11 01 Sep 22:46:39 22:50:52 53° 260° (W) 22:55:08 145.825 FM, Beacon 2401.500 USB
FUNcube-1 01 Sep 23:18:40 23:22:46 64° 259° (W) 23:26:59 145.950 - 145.970 MHz USB
Saudisat 1A 01 Sep 23:20:13 23:23:30 20° 305° (NW) 23:26:48 436.775 MHz
HO-68 01 Sep 23:24:22 23:28:01 15° 266° (W) 23:31:41 435.675 MHz FM
MaSat-1 01 Sep 23:47:18 23:51:19 46° 253° (WSW) 23:54:45 437.345 MHz
KITSAT 1 02 Sep 00:16:41 00:24:23 47° 301° (WNW) 00:32:08 435.175 FM
PCSat 02 Sep 01:39:06 01:42:49 19° 56° (NE) 01:46:31 145.825 MHz
Oscar 19 02 Sep 01:44:56 01:47:42 14° 94° (E) 01:50:27 437.125 CW, 437.150 USB
Oscar 10/S400 02 Sep 02:12:08 03:24:40 60° 224° (SW) 13:03:39 145.825 - 145.975 CW/USB, Beacon 145.810 USB
Oscar 16 02 Sep 02:18:31 02:23:16 36° 99° (E) 02:28:00 437.025 USB, Beacon 2401.1428
SO-50 02 Sep 02:20:26 02:23:12 16° 108° (ESE) 02:25:59 436.795 FM
ITAMSAT 1 02 Sep 02:22:45 02:25:26 14° 94° (E) 02:28:06 435.822 SSB
Uribyol 2 02 Sep 02:31:12 02:34:53 19° 96° (E) 02:38:34 436.500 FM
JAS-1B 02 Sep 02:37:42 02:42:02 20° 93° (E) 02:46:07 435.800 - 435.900 CW/SSB
AO-27 02 Sep 02:50:50 02:55:21 30° 98° (E) 02:59:52 436.795 MHz FM
Sapphire 02 Sep 02:51:49 02:57:16 81° 66° (ENE) 03:02:41 437.095 MHz 1200 baud AX-25 AFSK
PCSat 02 Sep 03:21:14 03:26:25 47° 250° (WSW) 03:31:34 145.825 MHz
Oscar 19 02 Sep 03:22:13 03:27:12 48° 286° (WNW) 03:32:09 437.125 CW, 437.150 USB
AO-Echo 02 Sep 03:30:11 03:34:54 87° 283° (WNW) 03:39:41 ?
Gurwin Techsat 1B 02 Sep 03:32:26 03:37:14 34° 98° (E) 03:42:00 435.225 FM
Oscar 16 02 Sep 03:58:34 04:02:19 21° 291° (WNW) 04:06:03 437.025 USB, Beacon 2401.1428
SO-50 02 Sep 03:59:20 04:03:24 35° 302° (WNW) 04:07:33 436.795 FM
ITAMSAT 1 02 Sep 04:00:06 04:05:06 50° 286° (WNW) 04:10:05 435.822 SSB
UOSAT-12 02 Sep 04:06:27 04:09:10 16° 108° (ESE) 04:11:55 437.025 FM, 437.400 FM
Uribyol 2 02 Sep 04:09:38 04:14:23 37° 288° (WNW) 04:19:07 436.500 FM
TMSAT-1 02 Sep 04:21:56 04:27:15 82° 103° (ESE) 04:32:32 436.925 FM
Uosat F 02 Sep 04:25:41 04:27:22 12° 94° (E) 04:29:03 435.120 FM
JAS-1B 02 Sep 04:27:09 04:32:57 39° 290° (WNW) 04:38:12 435.800 - 435.900 CW/SSB
AO-27 02 Sep 04:30:34 04:34:40 24° 290° (WNW) 04:38:46 436.795 MHz FM
AO-7 02 Sep 04:38:33 04:45:18 27° 98° (E) 04:51:59 29.400 - 29.500 MHz
OPAL 02 Sep 04:52:53 04:57:49 59° 73° (ENE) 05:02:51 ?
Gurwin Techsat 1B 02 Sep 05:12:55 05:16:55 22° 291° (WNW) 05:20:55 435.225 FM
UOSAT-12 02 Sep 05:44:38 05:48:55 39° 301° (WNW) 05:53:18 437.025 FM, 437.400 FM
Uosat F 02 Sep 06:01:30 06:06:23 55° 286° (WNW) 06:11:15 435.120 FM
RS-15 02 Sep 06:20:29 06:29:28 29° 105° (ESE) 06:38:14 29.354 - 29.394 USB, Beacon 29.352 USB
AO-7 02 Sep 06:30:17 06:38:12 52° 292° (WNW) 06:46:07 29.400 - 29.500 MHz
OPAL 02 Sep 06:35:28 06:36:59 11° 265° (W) 06:38:30 ?
STRAND 1 02 Sep 06:41:47 06:45:59 26° 70° (ENE) 06:50:10 ?
Hamsat 02 Sep 07:02:25 07:06:42 62° 100° (E) 07:10:56 145.90 MHz
JAS-2 02 Sep 07:17:04 07:22:30 78° 103° (ESE) 07:28:31 435.800 - 435.900 CW/SSB, 435.910 FM
SO-67 02 Sep 07:42:17 07:44:44 18° 96° (E) 07:47:09 435.3500 MHz FM
Saudisat 1A 02 Sep 07:51:16 07:55:37 58° 61° (ENE) 07:59:56 436.775 MHz
KITSAT 1 02 Sep 08:16:47 08:23:49 32° 55° (NE) 08:30:47 435.175 FM
STRAND 1 02 Sep 08:20:47 08:25:01 26° 263° (W) 08:29:16 ?
RS-15 02 Sep 08:30:01 08:41:00 62° 300° (WNW) 08:51:48 29.354 - 29.394 USB, Beacon 29.352 USB
ISS 02 Sep 08:43:13 08:46:04 27° 128° (SE) 08:48:55 145.800 FM
HO-68 02 Sep 09:08:55 09:13:41 19° 95° (E) 09:18:25 435.675 MHz FM
SO-67 02 Sep 09:15:24 09:17:35 16° 288° (WNW) 09:19:46 435.3500 MHz FM
KITSAT 1 02 Sep 10:11:41 10:19:18 47° 251° (WSW) 10:26:53 435.175 FM
ISS 02 Sep 10:20:16 10:22:46 20° 322° (NW) 10:25:16 145.800 FM
PANSAT 02 Sep 10:25:23 10:28:53 33° 162° (SSE) 10:32:23 not established
UKube-1 02 Sep 10:37:01 10:41:20 63° 101° (ESE) 10:45:37 145.840 MHz, 145.915 MHz
Oscar 11 02 Sep 10:40:20 10:44:29 42° 99° (E) 10:48:36 145.825 FM, Beacon 2401.500 USB
RS-15 02 Sep 10:50:52 10:56:04 14° 325° (NW) 11:01:16 29.354 - 29.394 USB, Beacon 29.352 USB
HO-68 02 Sep 10:54:38 11:01:39 61° 288° (WNW) 11:08:41 435.675 MHz FM
FUNcube-1 02 Sep 11:13:36 11:17:54 39° 99° (E) 11:22:13 145.950 - 145.970 MHz USB
MaSat-1 02 Sep 11:53:01 11:55:58 17° 101° (E) 11:59:03 437.345 MHz
PANSAT 02 Sep 12:05:01 12:08:52 68° 174° (S) 12:12:43 not established
Oscar 11 02 Sep 12:18:28 12:20:14 12° 292° (WNW) 12:22:01 145.825 FM, Beacon 2401.500 USB
SO-50 02 Sep 12:36:12 12:40:43 39° 59° (ENE) 12:45:16 436.795 FM
FUNcube-1 02 Sep 12:51:21 12:53:55 15° 291° (WNW) 12:56:29 145.950 - 145.970 MHz USB
Oscar 19 02 Sep 12:57:20 12:59:10 12° 65° (ENE) 13:01:01 437.125 CW, 437.150 USB
JAS-1B 02 Sep 13:14:46 13:20:34 18° 63° (ENE) 13:26:01 435.800 - 435.900 CW/SSB
MaSat-1 02 Sep 13:27:58 13:32:29 42° 296° (WNW) 13:37:20 437.345 MHz
Oscar 16 02 Sep 13:29:52 13:34:15 29° 71° (ENE) 13:38:38 437.025 USB, Beacon 2401.1428
ITAMSAT 1 02 Sep 13:36:09 13:38:09 12° 66° (ENE) 13:40:08 435.822 SSB
Uribyol 2 02 Sep 13:44:05 13:47:13 17° 67° (ENE) 13:50:22 436.500 FM
PANSAT 02 Sep 13:45:08 13:48:59 65° 187° (S) 13:52:49 not established
AO-27 02 Sep 14:03:31 14:07:42 26° 70° (ENE) 14:11:54 436.795 MHz FM
SO-50 02 Sep 14:17:48 14:20:57 18° 251° (WSW) 14:24:07 436.795 FM
UOSAT-12 02 Sep 14:19:56 14:24:13 34° 58° (ENE) 14:28:24 437.025 FM, 437.400 FM
Oscar 19 02 Sep 14:32:48 14:37:54 63° 259° (WSW) 14:43:02 437.125 CW, 437.150 USB
AO-Echo 02 Sep 14:36:57 14:41:57 64° 76° (ENE) 14:46:48 ?
Gurwin Techsat 1B 02 Sep 14:47:50 14:52:24 30° 71° (ENE) 14:56:59 435.225 FM
JAS-1B 02 Sep 15:00:10 15:10:05 89° 76° (ENE) 15:19:08 435.800 - 435.900 CW/SSB
Oscar 16 02 Sep 15:09:19 15:13:29 25° 263° (W) 15:17:41 437.025 USB, Beacon 2401.1428
ITAMSAT 1 02 Sep 15:11:58 15:17:03 61° 259° (WSW) 15:22:10 435.822 SSB
Uribyol 2 02 Sep 15:21:23 15:26:16 45° 260° (W) 15:31:12 436.500 FM
PANSAT 02 Sep 15:25:32 15:28:57 30° 199° (SSW) 15:32:20 not established
RS-15 02 Sep 15:27:56 15:35:46 21° 43° (NE) 15:43:44 29.354 - 29.394 USB, Beacon 29.352 USB
AO-7 02 Sep 15:32:01 15:38:05 23° 61° (ENE) 15:44:08 29.400 - 29.500 MHz
TMSAT-1 02 Sep 15:36:37 15:41:52 70° 75° (ENE) 15:47:07 436.925 FM
AO-27 02 Sep 15:42:38 15:47:02 28° 262° (W) 15:51:28 436.795 MHz FM
Sapphire 02 Sep 15:45:26 15:49:45 25° 107° (ESE) 15:54:06 437.095 MHz 1200 baud AX-25 AFSK
UOSAT-12 02 Sep 16:00:47 16:04:04 19° 251° (WSW) 16:07:18 437.025 FM, 437.400 FM
PCSat 02 Sep 16:13:29 16:18:43 54° 111° (ESE) 16:23:59 145.825 MHz
Gurwin Techsat 1B 02 Sep 16:28:01 16:32:17 25° 263° (W) 16:36:34 435.225 FM
ISS 02 Sep 16:53:08 16:55:56 24° 40° (NE) 16:58:43 145.800 FM
JAS-1B 02 Sep 16:55:15 17:00:55 17° 267° (W) 17:06:23 435.800 - 435.900 CW/SSB
Uosat F 02 Sep 17:08:32 17:13:32 78° 257° (WSW) 17:18:33 435.120 FM
OPAL 02 Sep 17:09:21 17:13:46 28° 99° (E) 17:18:07 ?
AO-7 02 Sep 17:21:53 17:30:08 66° 256° (WSW) 17:38:24 29.400 - 29.500 MHz
JAS-2 02 Sep 17:25:46 17:29:16 16° 69° (ENE) 17:32:34 435.800 - 435.900 CW/SSB, 435.910 FM
Sapphire 02 Sep 17:28:10 17:32:57 32° 300° (WNW) 17:37:47 437.095 MHz 1200 baud AX-25 AFSK
RS-15 02 Sep 17:38:30 17:49:44 86° 64° (ENE) 18:01:29 29.354 - 29.394 USB, Beacon 29.352 USB
Hamsat 02 Sep 17:50:33 17:53:47 21° 71° (ENE) 17:57:03 145.90 MHz
PCSat 02 Sep 17:59:03 18:02:25 17° 305° (NW) 18:05:48 145.825 MHz
ISS 02 Sep 18:30:00 18:32:32 20° 233° (SW) 18:35:03 145.800 FM
OPAL 02 Sep 18:48:08 18:52:29 27° 292° (WNW) 18:56:47 ?
STRAND 1 02 Sep 18:59:30 19:02:14 14° 95° (E) 19:04:57 ?
JAS-2 02 Sep 19:07:50 19:14:01 55° 259° (WSW) 19:19:32 435.800 - 435.900 CW/SSB, 435.910 FM
Hamsat 02 Sep 19:26:06 19:29:34 24° 264° (W) 19:33:04 145.90 MHz
SO-67 02 Sep 19:41:15 19:44:38 57° 77° (ENE) 19:48:03 435.3500 MHz FM
RS-15 02 Sep 19:53:57 20:00:49 18° 258° (WSW) 20:07:54 29.354 - 29.394 USB, Beacon 29.352 USB
